カタログに戻る

COSMOS 2251 DEB

運用中LEO
NORAD 33838·DEBRIS·🇷🇺 Russia

打ち上げ Jun 16, 1993 から Plesetsk Cosmodrome

Loading…

次のパス (今後24時間)

TLE

最新Source: Space-Track

元期: Sep 14, 2026, 06:09 UTC

1 33838U 93036CF  26257.25660493  .00000721  00000-0  19651-3 0  9998
2 33838  74.0393 353.5066 0026058  43.8773 346.7876 14.49035886925593

AllMySatでCOSMOS 2251 DEBをリアルタイム追跡

Download on the App Store